Simultaneous Nadir Overpasses (SNOs) Predictions

Prediction of SNOs between LANDSAT-8 and METOP-B Satellite Orbit:

Table of predicted SNOs for the next 14.0 days since TLE Epoch: 7/26/2014
Index Date (LANDSAT-8) Time (LANDSAT-8) Lat,Lon (LANDSAT-8) SZA (LANDSAT-8 ) Date (METOP-B) Time (METOP-B) Lat,Lon (METOP-B) SZA (METOP-B ) Distance(km) Time Diff (sec)
1 07/27/2014 19:03:28 81.17, -65.18 64.12 07/27/2014 19:02:41 81.16, -65.18 64.10 0.38 47
2 07/27/2014 19:52:54 -81.18, 102.76 115.83 07/27/2014 19:53:20 -81.19, 102.91 115.80 2.67 26
3 07/30/2014 14:37:47 81.16, 1.12 64.76 07/30/2014 14:37:04 81.16, 0.98 64.73 2.32 43
4 07/30/2014 15:27:13 -81.18, 169.08 115.18 07/30/2014 15:27:43 -81.18, 169.14 115.16 1.00 30
5 08/02/2014 10:12:07 81.16, 67.64 65.48 08/02/2014 10:11:26 81.16, 67.51 65.45 2.32 41
6 08/02/2014 11:01:33 -81.19,-124.37 114.46 08/02/2014 11:02:05 -81.19,-124.28 114.44 1.50 32
7 08/05/2014 05:46:28 81.16, 134.01 66.22 08/05/2014 05:45:47 81.16, 134.01 66.21 0.06 41
8 08/05/2014 06:35:54 -81.19, -57.97 113.72 08/05/2014 06:36:27 -81.18, -58.10 113.72 2.39 33
9 08/08/2014 01:20:52 81.15,-159.75 66.98 08/08/2014 01:20:10 81.15,-159.88 66.95 2.22 42




NCC Satellite Simultaneous Nadir Overpasses (SNOs) Prediction Service
